Cavalier, ND

1:54 AM CDT on August 25, 2016 (GMT -0500)
Cavalier

Weather History for K2C8 - October, 2013

Change the Weather History Date:

Tuesday, October 29, 2013

  Actual Average (KGAF) Record (KGAF)
Temperature  
Mean Temperature 26 °F -  
Max Temperature 37 °F 48 °F 74 °F (1950)
Min Temperature 14 °F 29 °F 8 °F (1988)
Degree Days  
Heating Degree Days 40    
Moisture  
Dew Point 17 °F    
Average Humidity 68    
Maximum Humidity 93    
Minimum Humidity 41    
Precipitation  
Precipitation 0.00 in - - ()
Sea Level Pressure  
Sea Level Pressure 30.27 in    
Wind  
Wind Speed 3 mph (South)    
Max Wind Speed 9 mph    
Max Gust Speed -    
Visibility 10 miles    
Events      
Averages and records for this station are not official NWS values.
T = Trace of Precipitation, MM = Missing Value Source: NWS Daily Summary

Daily Weather History Graph

Daily Weather History Graph

Search for Another Location

Airport or City:

Trip Planner

Search our weather history database for the weather conditions in past years. The results will help you decide how hot, cold, wet, or windy it might be!

Date:

Astronomy

Oct. 29, 2013 Rise Set
Actual Time 8:12 AM CDT 6:14 PM CDT
Civil Twilight 7:40 AM CDT 6:47 PM CDT
Nautical Twilight 7:03 AM CDT 7:24 PM CDT
Astronomical Twilight 6:26 AM CDT 8:01 PM CDT
Moon 2:40 AM CDT (10/29) 3:50 PM CDT (10/29)
Length of Visible Light 11h 07m
Length of Day
10h 01m
Waning Crescent, 25% of the Moon is Illuminated
Oct 29
Waning Crescent
Nov 3
New
Nov 9
First Quarter
Nov 17
Full
Nov 25
Last Quarter

Hourly Weather History & Observations

Time (CDT) Temp. Windchill Dew Point Humidity Pressure Visibility Wind Dir Wind Speed Gust Speed Precip Events Conditions
12:15 AM 17.6 °F - 14.0 °F 86% 30.50 in 10.0 mi Calm Calm - N/A   Clear
12:35 AM 19.4 °F - 15.8 °F 86% 30.50 in 10.0 mi Calm Calm - N/A   Clear
12:55 AM 19.4 °F - 15.8 °F 86% 30.49 in 10.0 mi Calm Calm - N/A   Clear
1:15 AM 17.6 °F - 14.0 °F 86% 30.49 in 10.0 mi Calm Calm - N/A   Clear
1:35 AM 15.8 °F - 14.0 °F 93% 30.49 in 10.0 mi Calm Calm - N/A   Clear
1:55 AM 15.8 °F - 14.0 °F 93% 30.49 in 10.0 mi Calm Calm - N/A   Clear
2:15 AM 15.8 °F - 14.0 °F 93% 30.49 in 10.0 mi Calm Calm - N/A   Clear
2:35 AM 15.8 °F - 14.0 °F 93% 30.48 in 10.0 mi Calm Calm - N/A   Clear
2:55 AM 15.8 °F - 14.0 °F 93% 30.48 in 10.0 mi Calm Calm - N/A   Clear
3:15 AM 14.0 °F - 12.2 °F 93% 30.47 in 10.0 mi Calm Calm - N/A   Clear
3:35 AM 15.8 °F - 14.0 °F 93% 30.47 in 10.0 mi Calm Calm - N/A   Clear
3:55 AM 14.0 °F - 12.2 °F 93% 30.47 in 10.0 mi Calm Calm - N/A   Clear
4:15 AM 15.8 °F - 12.2 °F 86% 30.47 in 10.0 mi Calm Calm - N/A   Clear
9:55 AM 19.4 °F - 17.6 °F 93% 30.37 in 6.0 mi Calm Calm - N/A   Clear
10:15 AM 21.2 °F - 17.6 °F 86% 30.36 in 9.0 mi Calm Calm - N/A   Clear
10:35 AM 23.0 °F - 17.6 °F 80% 30.36 in 10.0 mi Calm Calm - N/A   Clear
10:55 AM 24.8 °F - 19.4 °F 80% 30.35 in 10.0 mi Calm Calm - N/A   Clear
11:15 AM 26.6 °F 20.0 °F 19.4 °F 74% 30.34 in 10.0 mi SSE 5.8 mph - N/A   Clear
11:35 AM 28.4 °F 22.2 °F 19.4 °F 69% 30.33 in 10.0 mi South 5.8 mph - N/A   Partly Cloudy
11:55 AM 30.2 °F 24.3 °F 17.6 °F 60% 30.32 in 10.0 mi South 5.8 mph - N/A   Clear
12:15 PM 32.0 °F 27.5 °F 15.8 °F 51% 30.31 in 10.0 mi SSE 4.6 mph - N/A   Clear
12:35 PM 30.2 °F 24.3 °F 15.8 °F 55% 30.30 in 10.0 mi South 5.8 mph - N/A   Clear
12:55 PM 32.0 °F 27.5 °F 15.8 °F 51% 30.28 in 10.0 mi SSE 4.6 mph - N/A   Scattered Clouds
1:15 PM 32.0 °F 28.7 °F 15.8 °F 51% 30.28 in 10.0 mi SSE 3.5 mph - N/A   Mostly Cloudy
1:35 PM 35.6 °F 32.8 °F 15.8 °F 44% 30.26 in 10.0 mi SSW 3.5 mph - N/A   Mostly Cloudy
1:55 PM 35.6 °F 28.6 °F 15.8 °F 44% 30.26 in 10.0 mi SSW 9.2 mph - N/A   Scattered Clouds
2:15 PM 35.6 °F 30.7 °F 15.8 °F 44% 30.24 in 10.0 mi SSW 5.8 mph - N/A   Clear
2:35 PM 35.6 °F 30.7 °F 15.8 °F 44% 30.23 in 10.0 mi South 5.8 mph - N/A   Clear
2:55 PM 35.6 °F 29.9 °F 15.8 °F 44% 30.22 in 10.0 mi SSW 6.9 mph - N/A   Clear
3:15 PM 35.6 °F 29.9 °F 15.8 °F 44% 30.21 in 10.0 mi SSW 6.9 mph - N/A   Clear
3:35 PM 37.4 °F 31.4 °F 15.8 °F 41% 30.20 in 10.0 mi South 8.1 mph - N/A   Clear
3:55 PM 35.6 °F 28.6 °F 17.6 °F 48% 30.19 in 10.0 mi South 9.2 mph - N/A   Clear
4:15 PM 37.4 °F 30.8 °F 17.6 °F 45% 30.18 in 10.0 mi SSW 9.2 mph - N/A   Clear
4:35 PM 37.4 °F 32.1 °F 17.6 °F 45% 30.18 in 10.0 mi South 6.9 mph - N/A   Clear
4:55 PM 37.4 °F 30.8 °F 17.6 °F 45% 30.17 in 10.0 mi South 9.2 mph - N/A   Clear
5:15 PM 37.4 °F 31.4 °F 17.6 °F 45% 30.16 in 10.0 mi South 8.1 mph - N/A   Clear
5:35 PM 35.6 °F 30.7 °F 17.6 °F 48% 30.15 in 10.0 mi South 5.8 mph - N/A   Clear
5:55 PM 35.6 °F 29.2 °F 19.4 °F 52% 30.15 in 10.0 mi South 8.1 mph - N/A   Clear
6:15 PM 32.0 °F 26.4 °F 19.4 °F 60% 30.14 in 10.0 mi South 5.8 mph - N/A   Clear
6:35 PM 32.0 °F 28.7 °F 17.6 °F 55% 30.14 in 10.0 mi SSE 3.5 mph - N/A   Clear
6:55 PM 32.0 °F 27.5 °F 19.4 °F 60% 30.14 in 10.0 mi SSE 4.6 mph - N/A   Clear
7:15 PM 30.2 °F 25.4 °F 19.4 °F 64% 30.14 in 10.0 mi South 4.6 mph - N/A   Clear
7:35 PM 30.2 °F 26.7 °F 19.4 °F 64% 30.13 in 8.0 mi South 3.5 mph - N/A   Clear
7:55 PM 28.4 °F 21.2 °F 19.4 °F 69% 30.13 in 10.0 mi South 6.9 mph - N/A   Clear
8:15 PM 28.4 °F 23.3 °F 19.4 °F 69% 30.13 in 10.0 mi SSW 4.6 mph - N/A   Clear
8:35 PM 28.4 °F 22.2 °F 19.4 °F 69% 30.12 in 10.0 mi South 5.8 mph - N/A   Clear
8:55 PM 28.4 °F 24.6 °F 19.4 °F 69% 30.12 in 10.0 mi South 3.5 mph - N/A   Clear
9:15 PM 26.6 °F 21.2 °F 19.4 °F 74% 30.12 in 10.0 mi SSW 4.6 mph - N/A   Clear
9:35 PM 26.6 °F 22.6 °F 19.4 °F 74% 30.12 in 10.0 mi South 3.5 mph - N/A   Clear
9:55 PM 26.6 °F 21.2 °F 19.4 °F 74% 30.12 in 10.0 mi SSW 4.6 mph - N/A   Clear
10:15 PM 24.8 °F 19.1 °F 19.4 °F 80% 30.12 in 10.0 mi SSW 4.6 mph - N/A   Clear
10:35 PM 24.8 °F 17.9 °F 19.4 °F 80% 30.12 in 10.0 mi SSW 5.8 mph - N/A   Clear
10:55 PM 26.6 °F 21.2 °F 19.4 °F 74% 30.11 in 10.0 mi SSW 4.6 mph - N/A   Clear
11:15 PM 26.6 °F 22.6 °F 19.4 °F 74% 30.11 in 10.0 mi South 3.5 mph - N/A   Clear
11:35 PM 24.8 °F 20.5 °F 19.4 °F 80% 30.11 in 10.0 mi SSW 3.5 mph - N/A   Clear
11:55 PM 24.8 °F 20.5 °F 19.4 °F 80% 30.11 in 10.0 mi SSW 3.5 mph - N/A   Clear